Weather Roundup
Issued by NWS

Home | Current Version | Previous Version | Graphics & Text | Print | Product List | Glossary Off
Versions: 1 2 3 4 5 6 7 8 9 10 11 12 13 14 15 16 17 18 19 20 21 22 23 24 25 26 27 28 29 30 31 32 33 34 35 36 37 38 39 40 41 42 43 44 45 46 47 48 49 50

000
NZUS93 KARX 021410
HRRWXR

CURRENT HOURLY OBSERVATIONS ACROSS
MUCH OF THE UPPER MISSISSIPPI VALLEY
NATIONAL WEATHER SERVICE LA CROSSE WI
900 AM CDT SUN AUG 02 2015


...SOUTHEAST MINNESOTA...


CITY           SKY/WX    TMP DP  RH WIND       PRES   REMARKS
ROCHESTER      SUNNY     75  70  84 SW13      29.73F
ROCHESTER/MAYO FAIR      76  69  78 SW12G24   29.72F
WINONA         SUNNY     79  68  69 W7        29.70F
AUSTIN         SUNNY     75  70  83 SW9G17    29.74F
ALBERT LEA     SUNNY     75  68  78 SW12G17   29.73F
DODGE CENTER   SUNNY     75  68  78 SW16G22   29.71F
PRESTON        SUNNY     74  66  76 SW13G20   29.76S
OWATONNA       SUNNY     75  68  78 SW17G24   29.69F
FARIBAULT      SUNNY     75  68  78 SW9G16    29.68F
$$

...ELSEWHERE IN MINNESOTA...


CITY           SKY/WX    TMP DP  RH WIND       PRES   REMARKS
MINNEAPOLIS    MOSUNNY   75  64  68 S10       29.63F
INTNL FALLS    MOSUNNY   67  56  67 N12       29.66R
DULUTH         PTSUNNY   69  56  62 W10       29.65F
RED WING       MOSUNNY   77  64  65 W7        29.65F
REDWOOD FALLS  SUNNY     77  62  59 W14       29.67R
MANKATO        SUNNY     73  64  73 SW16      29.68F
WORTHINGTON    SUNNY     73  63  68 SW16      29.77R
FAIRMONT       SUNNY     75  64  69 SW16      29.73F
$$

...SOUTHWEST WISCONSIN...


CITY           SKY/WX    TMP DP  RH WIND       PRES   REMARKS
LA CROSSE      SUNNY     80  68  66 VRB5G17   29.72R
PRAIRIE DU CHI MOSUNNY   78  64  61 SW6       29.76S
BOSCOBEL       PTSUNNY   80  67  64 SW12      29.75F
LONE ROCK      CLOUDY    78  67  68 SW9       29.76F
PLATTEVILLE    PTSUNNY   76  69  77 SW12      29.81F
FORT MC COY    SUNNY     77  66  69 W8        29.73R
CAMP DOUGLAS   MOSUNNY   79  75  89 W13       29.72R
VIROQUA        FAIR      77  68  72 W14       29.77R
WIS DELLS      CLOUDY    77  67  70 SW18G25   29.73S
$$

...ELSEWHERE IN WISCONSIN...


CITY           SKY/WX    TMP DP  RH WIND       PRES   REMARKS
MILWAUKEE      MOSUNNY   80  68  66 SW20G28   29.77F
MADISON        PTSUNNY   78  67  68 SW8G17    29.77F
GREEN BAY      MOSUNNY   77  69  76 SW12G21   29.70S
EAU CLAIRE       N/A     75  65  70 MISG      29.66F
BLACK RVR FLS  FAIR      78  66  66 SW7       29.71F
MEDFORD        CLOUDY    69  65  88 SW10      29.68F
WAUSAU         LGT RAIN  70  67  90 SW12      29.67F
WIS RAPIDS     CLOUDY    76  66  71 W7        29.73S
MARSHFIELD     PTSUNNY   73  66  78 W9        29.71F
RICE LAKE      MOSUNNY   72  65  79 W6        29.67F
$$

...NORTHEAST IOWA...


CITY           SKY/WX    TMP DP  RH WIND       PRES   REMARKS
DECORAH        SUNNY     75  66  73 SW8G18    29.76S
MASON CITY     SUNNY     76  68  76 W18       29.79S
CHARLES CITY   SUNNY     73  70  88 SW15G21   29.79S
OELWEIN        SUNNY     75  68  78 SW10      29.81R
$$

...ELSEWHERE IN IOWA...


CITY           SKY/WX    TMP DP  RH WIND       PRES   REMARKS
DES MOINES     CLOUDY    76  66  71 SW13      29.81F
IOWA CITY      PTSUNNY   74  64  71 MISG      29.85F
FORT DODGE     SUNNY     75  68  78 SW10      29.81S
$$

...NORTHERN ILLINOIS...


CITY           SKY/WX    TMP DP  RH WIND       PRES   REMARKS
CHICAGO-OHARE  MOSUNNY   80  65  59 SW16G25   29.84S
CHICAGO-MIDWAY MOSUNNY   81  65  58 SW14G28   29.85S
MOLINE         MOSUNNY   79  64  60 SW12      29.85F
ROCKFORD       MOSUNNY   79  69  71 SW9       29.85S
PEORIA         SUNNY     78  68  71 SW10      29.91S
$$

NOTE: "FAIR" INDICATES FEW OR NO CLOUDS BELOW 12,000 FEET WITH NO
SIGNIFICANT WEATHER AND/OR OBSTRUCTIONS TO VISIBILITY. WIND
SPEEDS ARE IN MILES-PER-HOUR.



USA.gov is the U.S. government's official web portal to all federal, state and local government web resources and services.